TimePDT,TemperatureF,Dew PointF,Humidity,Sea Level PressureIn,VisibilityMPH,Wind Direction,Wind SpeedMPH,Gust SpeedMPH,PrecipitationIn,Events,Conditions,WindDirDegrees,DateUTC
12:53 AM,63.0,57.9,84,29.81,10.0,NNE,3.5,-,N/A,,Overcast,30,2013-06-24 07:53:00
1:43 AM,62.6,57.2,82,29.81,10.0,Calm,Calm,-,N/A,,Scattered Clouds,0,2013-06-24 08:43:00
1:53 AM,63.0,57.9,84,29.80,10.0,WNW,3.5,-,N/A,,Partly Cloudy,290,2013-06-24 08:53:00
2:53 AM,63.0,57.9,84,29.79,10.0,WNW,6.9,-,N/A,,Partly Cloudy,290,2013-06-24 09:53:00
3:34 AM,62.6,57.2,82,29.79,10.0,WNW,5.8,-,N/A,,Mostly Cloudy,300,2013-06-24 10:34:00
3:53 AM,63.0,57.9,84,29.78,10.0,WNW,5.8,-,N/A,,Overcast,300,2013-06-24 10:53:00
4:53 AM,62.1,57.0,84,29.79,10.0,NW,9.2,-,N/A,,Overcast,310,2013-06-24 11:53:00
5:33 AM,62.6,57.2,82,29.81,10.0,NW,6.9,-,N/A,,Overcast,310,2013-06-24 12:33:00
5:53 AM,61.0,57.0,87,29.81,10.0,NW,5.8,-,0.00,Rain,Light Rain,310,2013-06-24 12:53:00
6:53 AM,60.1,57.0,90,29.82,10.0,NW,5.8,-,0.00,Rain,Light Rain,310,2013-06-24 13:53:00
7:22 AM,60.8,57.2,88,29.82,10.0,WNW,10.4,-,0.01,Rain,Light Rain,300,2013-06-24 14:22:00
7:53 AM,59.0,57.0,93,29.83,10.0,WNW,9.2,-,0.01,Rain,Light Rain,300,2013-06-24 14:53:00
8:53 AM,60.1,57.0,90,29.84,10.0,WNW,6.9,-,0.01,Rain,Light Rain,300,2013-06-24 15:53:00
9:24 AM,60.8,57.2,88,29.86,10.0,WNW,5.8,-,0.00,,Overcast,290,2013-06-24 16:24:00
9:37 AM,60.8,57.2,88,29.86,10.0,NW,3.5,-,0.01,,Overcast,310,2013-06-24 16:37:00
9:53 AM,62.1,57.9,86,29.86,10.0,Calm,Calm,-,0.01,,Overcast,0,2013-06-24 16:53:00
10:53 AM,63.0,59.0,87,29.87,10.0,Calm,Calm,-,N/A,,Overcast,0,2013-06-24 17:53:00
11:07 AM,64.4,60.8,88,29.87,10.0,NW,3.5,-,N/A,,Overcast,310,2013-06-24 18:07:00
11:53 AM,64.9,60.1,84,29.87,10.0,Calm,Calm,-,N/A,,Overcast,0,2013-06-24 18:53:00
12:12 PM,66.2,60.8,83,29.88,10.0,WSW,3.5,-,N/A,,Overcast,250,2013-06-24 19:12:00
12:53 PM,66.9,60.1,79,29.87,10.0,SW,5.8,-,N/A,,Overcast,220,2013-06-24 19:53:00
1:00 PM,68.0,60.8,78,29.88,10.0,Variable,6.9,-,N/A,,Overcast,0,2013-06-24 20:00:00
1:21 PM,66.2,59.0,78,29.88,10.0,NW,11.5,-,N/A,,Overcast,320,2013-06-24 20:21:00
1:53 PM,64.9,59.0,81,29.88,10.0,NW,12.7,-,N/A,,Overcast,310,2013-06-24 20:53:00
2:00 PM,66.2,59.0,78,29.88,10.0,NW,10.4,-,N/A,,Overcast,310,2013-06-24 21:00:00
2:53 PM,69.1,59.0,70,29.88,10.0,WNW,11.5,-,N/A,,Overcast,300,2013-06-24 21:53:00
3:53 PM,68.0,59.0,73,29.87,10.0,NW,8.1,-,0.00,Rain,Light Rain,310,2013-06-24 22:53:00
4:53 PM,69.1,57.9,68,29.86,10.0,SW,9.2,-,0.00,,Overcast,230,2013-06-24 23:53:00
5:53 PM,66.9,60.1,79,29.86,10.0,SW,9.2,-,0.00,Rain,Light Rain,220,2013-06-25 00:53:00
6:53 PM,66.9,59.0,76,29.87,10.0,WSW,4.6,-,0.00,,Overcast,240,2013-06-25 01:53:00
7:53 PM,66.0,60.1,81,29.87,10.0,West,6.9,-,0.00,Rain,Light Rain,280,2013-06-25 02:53:00
8:53 PM,64.9,60.1,84,29.88,10.0,West,6.9,-,0.00,,Overcast,270,2013-06-25 03:53:00
9:53 PM,64.9,60.1,84,29.89,10.0,SW,5.8,-,0.00,,Overcast,230,2013-06-25 04:53:00
10:53 PM,64.9,59.0,81,29.90,10.0,WSW,11.5,-,N/A,,Overcast,250,2013-06-25 05:53:00
11:53 PM,64.9,57.9,78,29.90,10.0,WSW,6.9,-,N/A,,Overcast,240,2013-06-25 06:53:00